User: anonymous   Login
Location: Ariel
(45.9570°N, 122.5700°W)
Time: 12:02:12
(UTC-07:00)
Language:

BEESAT - Orbit

View from above orbital plane
View from above orbital plane
View from above satellite
View from above satellite

Ground track
Ground track

The orbit data is extracted from the following two-line orbital elements,

1 35933U 09051C   19295.12056560  .00000120  00000-0  38162-4 0  9996
2 35933  98.6008 106.6712 0006381 145.5552 214.6059 14.56404925535149
Epoch (UTC): 22 October 2019 02:53:36
Eccentricity: 0.0006381
inclination: 98.6008°
perigee height: 700 km
apogee height: 709 km
right ascension of ascending node: 106.6712°
argument of perigee: 145.5552°
revolutions per day: 14.56404925
mean anomaly at epoch: 214.6059°
orbit number at epoch: 53514

The dashed part of the orbit path shows where the satellite is in the earth's shadow,  

DLR